Regional Weather Roundup
Issued by NWS

Home | Current Version | Previous Version | Graphics & Text | Print | Product List | Glossary On
Versions: 1 2 3 4 5 6 7 8 9 10 11 12 13 14 15 16 17 18 19 20 21 22 23 24 25 26 27
000
ASUS45 KSLC 200710
RWRUT

UTAH REGIONAL WEATHER ROUNDUP
NATIONAL WEATHER SERVICE SALT LAKE CITY UT
100 AM MDT SUN APR 20 2014

UTZ001>011-023>025-200800-

NORTHERN UTAH

CITY           SKY/WX    TMP DP  RH WIND       PRES   REMARKS
HILL AFB       CLEAR     55  31  38 E13       30.02S
LOGAN          CLEAR     43  36  76 CALM      30.01R
OGDEN          CLEAR     55  32  41 S10       30.00S
PROVO AIRPORT  CLEAR     50  37  62 E3        30.05R
SALT LAKE CITY PTCLDY    55  38  52 SE9       30.00S
VERNAL         CLEAR     46  37  71 W3        30.08S
WENDOVER       PTCLDY    55  37  50 E5        29.99S
HEBER CITY     CLEAR     36  32  87 E3        30.10R
WEST JORDAN    CLEAR     54  37  54 SW7       30.03R

$$

UTZ012>022-026-027-200800-

SOUTHERN UTAH

CITY           SKY/WX    TMP DP  RH WIND       PRES   REMARKS
BRYCE CANYON   PTCLDY    31  28  89 W7        30.22S WCI  24
CEDAR CITY     CLEAR     53  32  44 SE9       30.11S
MILFORD        PTCLDY    56  35  45 SW14      30.06S
MOAB/CYNLANDS  CLEAR     49  38  65 CALM      30.05R
PRICE          CLEAR     46  33  60 N7        30.11F
ST GEORGE      SUNNY     66  36  32 E10       30.02S
KANAB            N/A     48  34  57 NE5       30.15S

$$

REGIONAL REPORTS     COLORADO/ARIZONA

CITY           SKY/WX    TMP DP  RH WIND       PRES   REMARKS
CRAIG, CO      CLEAR     37  33  85 NE3       30.13R
GRAND JUNCTION CLEAR     49  42  77 E7        30.08R
RIFLE          CLEAR     45  36  70 SE3       30.11S
MONTROSE       PTCLDY    46  41  82 SE10      30.13S
CORTEZ         CLEAR     41  33  73 E6        30.11S
PAGE, AZ       CLEAR     62  35  36 W5        30.06R
GRAND CANYON   CLEAR     34  32  92 E3        30.20S
KINGMAN        PTCLDY    57  36  45 SE7       30.06R
FLAGSTAFF      CLEAR     33  28  81 CALM      30.21F

$$

REGIONAL REPORTS    NEVADA/IDAHO/WYOMING

CITY           SKY/WX    TMP DP  RH WIND       PRES   REMARKS
LAS VEGAS, NV  CLEAR     75  34  22 S10       29.91S
ELY            PTCLDY    43  34  70 S3        30.13F
ELKO           MOCLDY    50  23  34 W8        30.08R
POCATELLO, ID  PTCLDY    60  30  32 S18       29.95S
BURLEY         PTCLDY    56  28  34 W24G36    29.95R
EVANSTON, WY   CLEAR     45  29  53 S5        30.13R
ROCK SPRINGS   CLEAR     46  30  53 SW9       30.11R

$$



USA.gov is the U.S. government's official web portal to all federal, state and local government web resources and services.